Vorticity
7 8 7 7 7 6 6 7 8 9 10 11 11 10 11 10 10 11 9 9 10 10 8 6 7 6 5 6 6 4 4 5 6 7 8 9 10 10 10 10 10 10 10 10 9 9 9 10 10 11 11 10 9 8 7 7 8 11 13 12 11 9 7 6 6 5 5 7 9 7 4 3 4 4 4 5 7 7 8 11 9 8 7 6 5 5
7 6 6 6 6 6 8 9 10 11 10 10 9 8 10 10 9 10 9 9 8 6 6 6 5 5 6 8 8 7 8 8 8 9 10 11 11 11 11 11 11 11 10 11 11 11 11 10 10 11 12 13 14 12 11 9 7 6 8 11 13 12 10 9 8 8 7 7 9 11 9 6 4 4 4 4 3 -1 1 7 3 -0 6 12 9 3
7 7 7 6 7 8 9 9 10 9 9 9 9 9 9 8 6 6 4 4 6 6 7 8 9 10 10 10 12 13 13 13 12 11 11 11 11 11 10 10 10 10 9 9 10 10 10 11 12 12 13 13 14 16 17 15 13 9 7 7 9 12 12 10 9 9 9 8 8 10 11 11 7 5 4 3 4 2 -1 -1 -0 3 9 13 14 11
7 7 7 7 8 9 8 8 9 9 9 9 8 8 7 6 6 9 7 5 6 9 9 9 11 13 11 11 13 13 12 12 12 11 11 10 10 10 11 12 12 12 12 12 12 13 13 12 12 13 15 15 15 15 17 18 18 16 13 9 8 9 11 12 10 9 8 8 7 8 9 12 11 9 7 4 4 4 4 2 6 16 10 3 5 7
7 8 8 9 9 8 8 8 8 6 7 7 7 7 7 6 8 12 16 15 12 11 11 11 11 10 11 13 14 13 11 10 11 11 12 12 12 13 13 15 16 17 18 18 18 19 20 19 17 15 14 15 16 16 16 17 18 19 19 16 13 10 10 13 14 12 10 9 8 7 7 8 10 12 10 10 7 4 4 -2 -2 10 10 0 -1 0
9 9 8 8 7 8 9 8 7 7 7 7 6 5 7 10 11 11 12 13 11 10 11 13 12 10 11 13 12 12 12 13 13 12 13 14 15 16 18 20 22 24 24 23 21 20 20 21 21 20 18 15 16 17 18 17 17 18 19 20 19 16 12 12 14 15 14 12 11 9 8 6 7 10 11 12 11 8 8 1 -8 -4 4 4 -0 -3
8 7 8 7 8 8 7 7 7 6 4 4 5 8 11 12 13 11 9 11 12 13 13 14 13 12 13 12 8 9 12 12 12 12 13 15 17 19 22 25 28 31 32 32 29 24 19 16 15 15 16 15 14 15 17 19 18 16 15 16 18 19 18 16 15 16 17 16 15 13 12 10 7 8 9 10 11 11 10 9 5 2 2 7 11 4
8 8 7 6 6 4 3 4 4 3 4 8 10 12 12 11 10 10 10 11 12 13 13 11 10 10 11 11 10 10 9 7 9 12 15 18 21 24 27 29 30 31 33 33 30 25 21 16 14 12 11 11 10 9 9 13 15 17 17 15 13 12 14 15 14 14 16 17 19 18 16 15 12 9 10 10 10 11 12 11 11 10 5 7 20 18
6 5 3 3 4 4 5 4 4 7 11 12 12 12 12 11 10 9 10 11 11 13 12 8 9 11 10 10 11 11 9 7 10 14 17 21 24 28 29 28 28 26 28 28 20 14 17 19 20 21 19 16 14 10 7 7 7 9 13 17 17 14 10 9 10 10 12 14 15 16 17 18 18 14 12 14 13 11 11 11 11 11 8 5 8 13
2 2 2 4 6 5 6 8 10 12 13 13 13 13 11 10 10 10 10 11 12 13 11 9 13 16 15 12 11 11 11 11 13 15 17 21 24 27 27 26 25 23 28 32 23 12 10 9 9 13 15 15 15 16 16 15 14 10 8 10 13 17 16 12 9 7 8 11 11 11 12 15 19 19 17 16 18 16 13 11 10 10 10 -2 -11 -2
2 3 4 6 7 8 10 13 15 15 14 15 13 10 7 7 9 10 10 11 12 12 11 12 13 12 14 15 9 7 9 10 12 14 16 19 22 24 25 24 22 21 26 33 33 28 20 14 10 8 9 12 11 12 15 16 19 20 18 15 9 9 12 14 14 11 8 9 10 10 10 11 14 17 19 18 19 21 19 16 12 10 14 5 -8 -2
5 7 8 8 9 11 12 13 13 12 12 11 10 9 8 9 9 9 9 9 10 13 14 13 12 10 9 10 9 7 7 8 10 13 15 18 22 23 23 22 20 20 23 27 31 31 29 30 27 15 10 12 9 6 7 8 10 13 17 22 20 13 8 6 10 15 16 14 13 11 10 11 13 13 12 13 14 16 19 22 20 15 14 10 3 4
8 8 8 9 10 9 9 10 9 9 10 8 8 10 10 11 11 10 11 11 11 15 14 12 14 13 8 7 9 8 6 7 10 12 14 18 21 22 22 20 19 18 20 23 26 25 23 25 26 19 16 18 16 12 8 5 5 5 6 13 19 21 17 10 6 8 13 17 18 18 13 11 14 14 10 8 9 8 8 13 19 22 22 15 11 10
6 5 6 8 9 9 10 12 12 11 11 10 10 11 11 13 12 11 12 13 13 14 14 13 13 12 8 8 8 6 5 7 10 11 14 17 19 20 20 19 18 17 17 19 23 26 25 24 25 25 27 28 27 27 24 15 8 3 2 3 7 15 19 19 14 8 7 9 14 19 20 18 16 14 11 9 9 8 5 5 6 11 19 23 23 21
4 7 8 8 10 12 14 14 13 12 10 10 12 11 12 12 11 12 12 12 13 15 17 16 13 11 11 10 8 7 7 7 8 10 13 17 18 18 18 18 18 16 16 16 17 21 22 23 24 25 27 27 26 28 32 32 26 17 10 5 3 5 10 14 16 14 9 6 7 9 12 17 20 19 13 9 9 9 8 8 6 5 7 14 22 21
7 9 9 11 13 14 13 13 12 11 10 11 11 11 11 10 11 12 11 12 13 15 17 15 13 14 13 10 10 10 8 6 8 9 12 15 15 15 15 15 17 16 15 15 15 16 16 15 16 17 20 22 23 23 24 28 30 29 25 20 13 7 4 4 8 11 11 7 6 7 6 7 12 18 18 12 10 10 9 8 6 6 5 5 12 16
9 12 11 12 14 12 12 12 10 10 11 12 12 11 11 10 12 12 11 12 12 14 14 11 14 15 9 9 13 10 7 7 7 9 13 15 13 12 12 13 16 18 17 16 14 15 18 17 16 15 15 17 18 20 21 21 23 23 23 25 24 21 16 9 4 2 3 3 1 1 6 8 7 9 14 14 12 9 9 11 9 8 8 4 4 7
11 12 10 11 12 11 12 11 10 12 12 11 10 11 12 12 13 11 8 9 9 10 8 6 15 13 2 8 14 9 8 8 7 9 12 15 14 11 11 11 13 18 21 22 19 15 15 17 18 18 16 16 15 15 16 17 20 22 23 24 25 28 29 28 23 14 11 11 7 -2 -3 3 7 7 8 9 10 9 6 6 7 7 8 7 5 5
12 11 10 11 10 11 13 11 12 13 10 9 10 11 11 9 9 8 6 8 9 9 5 4 14 10 -3 6 13 8 9 9 7 10 11 14 15 11 11 10 11 13 17 22 24 21 16 12 13 15 16 18 18 18 18 16 15 17 20 24 26 28 28 29 31 28 23 24 25 17 4 -2 1 5 7 7 7 10 8 4 3 4 4 4 3 6
10 10 12 11 8 12 14 11 12 10 7 9 10 8 7 4 5 6 6 8 8 8 5 3 12 10 -4 3 11 7 8 8 6 10 11 14 16 14 14 12 10 10 10 13 18 22 22 16 11 11 13 15 17 20 22 22 20 16 14 16 20 25 29 30 30 30 27 25 30 34 28 15 6 3 4 6 6 8 11 9 8 7 6 5 3 2
9 10 12 11 8 9 11 10 10 8 6 9 8 6 7 5 6 6 4 5 4 7 6 -1 7 13 -1 -1 11 8 6 8 6 7 10 13 15 16 18 16 12 10 8 8 11 16 24 24 17 12 11 11 13 16 19 21 23 22 18 15 14 15 20 24 27 30 31 28 27 32 37 34 25 15 8 6 4 5 9 11 10 10 9 9 10 9
8 9 11 10 6 6 10 10 10 8 7 9 8 6 7 5 5 5 3 3 3 7 8 -4 1 13 3 -1 10 8 4 6 5 5 7 10 13 14 18 18 15 12 9 8 8 10 18 25 23 16 11 10 12 13 16 20 22 23 21 18 16 15 15 17 18 21 24 27 26 26 31 35 35 31 24 16 10 5 4 5 8 10 9 8 8 10
8 8 9 9 8 8 11 10 8 7 6 7 6 6 8 6 4 5 4 4 4 6 9 -1 -2 11 6 -1 8 8 3 5 5 3 4 6 10 11 13 17 16 14 12 10 9 8 11 19 24 21 14 10 11 11 13 18 23 25 24 19 16 15 15 16 16 16 15 18 21 22 24 27 30 33 33 30 27 22 14 8 7 6 7 8 5 3
7 7 7 9 10 7 8 7 6 7 6 6 7 6 8 6 4 6 4 4 4 4 10 4 -2 10 9 -1 7 10 4 5 6 3 2 4 8 9 9 14 15 14 14 12 11 10 9 12 20 23 19 13 10 10 12 16 21 24 25 23 20 16 15 16 16 15 14 14 15 18 19 21 23 27 30 31 32 31 29 24 19 14 11 9 8 4
8 9 7 8 10 7 6 5 5 8 7 6 7 6 7 4 4 6 3 4 3 2 13 9 -5 8 13 0 5 11 5 6 7 5 4 2 5 8 7 11 12 13 15 14 13 12 10 10 13 19 22 17 12 10 10 14 18 22 23 23 21 19 16 17 18 16 14 14 14 15 16 17 18 21 25 28 31 31 31 31 28 26 23 19 15 11
9 9 7 8 9 9 10 7 7 10 8 6 7 6 6 5 6 7 4 6 3 -1 13 13 -6 3 15 4 5 11 6 6 7 6 5 -0 2 7 6 9 10 10 13 14 14 13 11 10 10 13 18 19 16 12 10 12 16 20 23 22 21 19 16 17 19 18 15 13 14 16 16 15 14 16 19 22 26 31 32 35 35 33 33 32 29 24
8 8 8 8 7 7 10 8 6 9 8 6 8 8 7 6 6 7 5 7 4 -4 9 15 -2 -1 10 7 7 10 8 8 7 6 5 -0 2 7 6 7 8 7 10 12 14 15 12 11 10 10 14 17 16 14 11 12 15 18 22 22 20 19 17 17 17 18 16 13 13 15 17 17 14 12 14 16 18 21 24 29 33 35 37 39 41 42
8 8 7 7 7 6 8 8 5 7 7 6 7 7 7 6 5 7 6 7 4 -3 3 12 5 3 5 4 8 9 6 9 8 7 5 0 2 7 6 7 7 6 8 9 11 14 13 13 11 9 11 14 15 15 13 12 15 19 22 23 21 18 17 17 17 17 17 15 13 13 14 17 16 11 11 13 14 16 17 18 23 27 30 34 39 44
7 8 6 8 9 6 7 8 7 6 7 8 8 6 7 6 4 5 6 7 4 -1 2 7 7 11 7 -1 7 11 6 7 9 7 5 1 2 7 6 6 7 6 7 7 9 11 12 13 13 10 10 12 13 15 14 13 15 19 23 24 22 20 17 16 17 17 17 16 13 13 13 15 16 13 10 10 11 12 13 13 15 17 19 23 27 33
6 8 6 6 9 8 6 7 8 6 6 8 6 3 4 5 4 4 5 7 4 -0 4 4 3 13 11 -2 3 11 8 8 9 9 7 1 1 6 6 5 6 6 7 7 7 8 10 12 13 11 9 10 11 13 14 14 15 18 23 27 25 22 18 16 16 16 17 17 14 12 12 15 16 14 11 10 11 11 11 12 12 12 13 14 15 19
6 8 6 5 8 10 6 5 8 5 5 8 5 2 4 3 2 4 5 8 6 1 4 5 1 8 11 3 4 9 7 8 11 10 7 1 1 6 6 5 6 5 6 8 7 7 8 11 13 13 11 9 9 11 13 15 16 18 23 28 29 26 20 17 16 17 17 17 16 13 12 13 16 16 13 10 10 12 12 12 13 13 13 12 11 11
6 6 7 4 6 9 6 5 6 5 6 10 5 2 5 4 2 5 6 10 9 1 1 5 3 5 8 5 6 10 8 8 12 12 6 1 4 8 6 5 6 5 5 7 7 6 7 10 12 14 13 10 8 9 11 13 16 20 24 29 31 29 24 19 16 16 17 17 17 16 13 12 13 16 16 12 10 11 12 12 13 14 13 11 11 10
7 6 7 5 4 8 8 4 5 7 8 9 5 4 8 6 4 6 7 11 11 2 1 5 5 6 7 4 4 9 10 9 13 15 7 1 6 10 8 6 5 4 5 6 5 5 6 8 11 13 13 11 8 8 10 12 15 19 24 29 31 30 28 24 18 15 16 17 17 17 16 14 13 14 16 15 11 11 13 13 12 13 14 12 10 11
8 6 7 5 3 7 8 4 4 8 8 7 5 7 9 7 6 5 6 15 15 3 1 6 6 6 7 5 4 6 8 9 14 17 8 2 6 10 8 8 7 5 5 4 5 6 5 6 9 11 13 12 10 8 8 11 15 21 26 29 30 29 28 27 24 18 15 15 16 16 16 16 15 15 16 17 14 11 11 13 13 12 13 13 12 13
8 6 6 6 4 6 7 4 4 5 9 10 5 6 8 6 6 4 6 18 18 3 -0 7 8 6 7 6 6 6 6 8 15 17 9 5 9 10 8 9 8 7 6 5 5 6 6 6 8 9 11 12 11 9 8 10 15 21 29 32 29 25 25 26 27 24 19 15 13 14 15 15 15 15 15 16 15 11 9 10 12 13 13 13 13 14
7 6 7 6 4 6 5 5 3 2 10 12 3 3 8 5 5 3 5 18 18 3 1 9 8 7 8 7 7 7 4 6 15 18 9 6 12 11 9 9 8 8 9 7 7 7 5 6 7 8 10 12 11 9 7 9 15 22 33 35 26 19 20 23 26 27 25 19 14 13 14 14 14 14 14 15 14 11 10 11 12 13 12 14 15 14
6 5 8 6 3 7 5 3 3 2 9 12 2 2 7 5 5 4 2 13 15 4 5 11 7 8 10 6 7 8 4 4 14 17 7 6 12 11 10 12 9 8 9 8 9 9 6 6 8 8 9 11 11 10 7 8 14 23 35 36 22 14 16 20 22 26 28 25 18 13 13 13 15 15 14 15 14 12 11 12 13 12 13 15 16 13
5 5 9 5 4 9 5 1 3 2 8 12 3 0 4 4 7 5 1 8 12 6 8 11 8 9 10 6 7 8 4 3 12 16 9 6 11 11 10 13 10 8 9 8 10 11 7 6 8 9 9 10 11 10 8 9 13 22 35 35 20 11 13 17 22 25 27 27 23 17 13 12 14 15 15 15 15 13 12 12 11 11 13 16 16 12
5 4 8 6 7 10 4 1 3 2 9 14 3 -2 4 5 8 7 1 5 12 10 9 10 9 9 8 6 7 8 6 3 7 13 11 7 11 11 10 11 12 9 8 8 9 11 9 7 8 8 9 10 11 10 9 9 12 20 33 34 21 11 10 14 21 25 26 27 26 21 16 13 13 14 15 15 14 13 12 11 11 11 12 16 17 12
5 5 7 8 11 9 2 2 3 4 15 17 1 -3 4 6 9 9 1 3 11 11 9 9 9 8 6 6 7 7 8 6 4 9 11 9 11 12 9 10 12 11 9 8 9 10 10 9 7 7 9 9 10 11 11 10 11 17 29 34 23 12 10 14 18 23 25 26 27 25 20 15 12 13 15 15 14 12 11 11 10 9 12 17 18 13
5 5 7 10 11 6 2 3 1 6 20 16 -1 -1 5 6 9 8 3 6 11 10 8 8 9 8 6 6 6 4 7 8 5 7 9 9 11 12 10 10 11 11 10 8 8 10 11 11 8 6 8 9 9 11 13 11 10 14 24 32 27 14 10 13 16 19 23 25 26 27 24 18 13 12 14 15 14 12 11 11 10 9 11 17 19 13
6 5 7 10 10 5 3 3 0 7 19 13 0 1 5 7 10 6 3 9 12 10 8 8 8 9 6 5 5 4 5 6 5 6 9 9 11 11 10 11 12 12 11 8 8 9 10 12 10 5 6 9 9 11 13 11 10 14 21 29 29 18 11 11 14 17 22 25 26 27 27 22 15 12 13 15 15 12 9 10 10 9 9 15 19 15
8 9 8 10 10 5 3 4 6 12 16 9 2 3 4 7 10 5 3 9 12 10 8 6 8 10 6 4 5 5 4 4 4 6 8 9 11 11 11 12 12 13 11 8 8 10 10 12 11 6 7 9 9 11 13 11 10 12 19 27 28 22 13 11 12 15 19 24 28 29 28 25 19 13 12 14 15 12 10 9 10 9 9 13 18 16
10 12 10 9 9 4 0 6 14 18 14 5 2 6 6 8 9 6 5 10 11 10 8 6 9 10 6 5 5 5 6 5 3 5 7 9 11 12 12 12 13 13 12 9 8 10 11 11 11 8 8 9 9 10 13 13 10 11 17 25 27 23 16 11 11 14 16 21 27 30 30 26 21 15 13 14 16 13 9 9 10 10 9 12 17 17
11 13 12 9 7 1 0 12 21 18 10 3 2 7 11 10 8 6 7 11 11 10 8 6 7 9 7 5 5 5 7 6 4 5 6 8 12 13 13 13 14 14 12 9 9 10 10 10 11 11 10 9 9 10 12 13 11 11 15 22 25 24 18 12 11 13 13 16 23 29 32 29 22 17 13 13 16 15 11 9 11 11 8 9 15 19
15 15 12 9 4 -3 -1 16 22 13 6 4 3 8 12 9 8 9 9 10 10 9 8 7 7 7 7 5 5 6 7 7 5 5 6 9 13 14 13 14 15 15 12 9 8 10 11 10 11 12 12 10 8 11 14 14 11 10 13 19 24 24 20 14 12 12 12 13 17 24 32 32 25 18 14 13 15 16 13 9 9 11 10 8 11 17
17 14 8 5 4 -2 -0 15 19 7 3 7 8 10 11 9 8 10 9 8 8 7 7 7 7 7 7 6 5 5 7 8 6 5 7 10 13 13 14 15 16 15 12 9 8 10 11 11 12 13 13 11 9 11 14 14 11 10 12 17 21 24 22 17 12 11 12 12 13 18 27 33 30 22 16 13 14 16 15 12 9 9 9 8 8 13
13 7 4 4 7 5 7 19 18 3 2 11 13 11 10 8 6 8 8 7 7 7 7 8 8 7 7 6 5 5 8 9 6 5 8 12 13 13 14 16 17 16 12 8 9 11 11 12 13 13 13 11 10 12 14 14 12 10 12 15 18 22 24 20 13 11 11 11 12 14 20 28 33 30 21 14 14 16 16 14 11 9 9 9 6 7
5 4 9 11 10 8 13 21 14 -1 2 14 16 12 9 7 5 7 9 9 8 8 8 8 8 7 6 6 6 6 8 8 6 6 9 12 13 13 14 16 19 17 11 8 9 11 13 14 14 13 13 12 11 12 14 14 12 10 11 14 16 20 24 21 15 12 11 11 11 12 14 20 29 33 29 20 14 14 17 16 12 9 9 10 9 6
1 9 17 15 8 7 15 19 8 -2 3 13 15 11 7 6 7 9 10 10 9 9 9 8 8 7 6 6 6 7 8 7 5 7 11 13 13 12 14 19 20 16 10 8 10 12 15 16 14 13 13 13 12 13 14 14 12 11 11 12 14 18 23 23 18 13 11 10 11 11 11 13 19 27 33 29 19 14 14 16 15 11 9 10 10 8
8 15 15 11 5 6 15 15 4 1 8 13 12 9 7 7 8 9 10 11 10 9 9 8 7 7 6 6 8 9 7 5 6 11 13 12 11 13 17 22 21 14 8 7 11 16 18 17 14 13 13 13 12 12 14 14 13 11 11 12 13 16 20 23 21 16 11 10 10 10 10 10 12 17 26 31 28 20 14 14 16 15 11 9 9 10
Height
5733 5731 5730 5729 5727 5725 5723 5720 5717 5715 5714 5711 5709 5706 5703 5703 5701 5695 5691 5688 5684 5679 5674 5673 5670 5667 5665 5663 5660 5657 5653 5650 5647 5644 5641 5637 5633 5630 5626 5622 5619 5615 5612 5609 5606 5603 5601 5600 5598 5597 5596 5596 5595 5594 5593 5593 5593 5593 5593 5593 5593 5593 5593 5593 5594 5595 5596 5598 5599 5601 5602 5603 5603 5603 5604 5604 5605 5605 5606 5607 5608 5609 5610 5611 5611 5610
5731 5729 5727 5726 5724 5721 5719 5715 5713 5710 5709 5707 5704 5702 5698 5696 5697 5693 5687 5682 5678 5673 5668 5666 5665 5661 5659 5656 5653 5650 5646 5642 5639 5635 5632 5628 5624 5620 5616 5612 5608 5605 5601 5598 5595 5592 5590 5588 5586 5585 5584 5583 5582 5582 5581 5581 5581 5581 5581 5582 5582 5583 5583 5583 5583 5584 5585 5586 5587 5589 5591 5592 5593 5594 5595 5595 5596 5596 5597 5598 5599 5600 5601 5602 5603 5602
5727 5725 5723 5721 5719 5717 5715 5711 5708 5705 5704 5702 5699 5697 5694 5690 5690 5691 5687 5678 5671 5667 5662 5659 5659 5656 5652 5649 5646 5642 5639 5635 5631 5627 5623 5618 5614 5610 5605 5601 5597 5593 5590 5587 5584 5581 5579 5576 5574 5572 5571 5570 5569 5568 5568 5568 5568 5569 5569 5570 5571 5571 5572 5572 5572 5573 5574 5575 5576 5577 5579 5581 5582 5584 5585 5585 5586 5586 5587 5588 5589 5591 5593 5594 5594 5594
5723 5721 5719 5717 5715 5713 5711 5708 5704 5701 5699 5697 5695 5692 5690 5685 5682 5683 5685 5678 5667 5660 5654 5650 5650 5648 5644 5641 5638 5634 5630 5627 5623 5618 5613 5609 5604 5599 5594 5590 5586 5582 5578 5575 5572 5569 5566 5563 5561 5559 5558 5556 5555 5555 5554 5554 5555 5555 5556 5557 5558 5559 5560 5561 5561 5562 5563 5563 5564 5566 5567 5570 5571 5573 5574 5575 5576 5577 5577 5579 5580 5581 5584 5585 5585 5585
5720 5717 5715 5713 5711 5709 5707 5704 5702 5698 5695 5693 5691 5688 5685 5682 5676 5671 5672 5672 5665 5654 5647 5643 5640 5638 5637 5633 5629 5625 5622 5619 5615 5609 5603 5599 5594 5589 5584 5579 5575 5570 5566 5562 5558 5555 5552 5550 5548 5546 5544 5543 5542 5542 5541 5541 5542 5542 5543 5543 5544 5546 5547 5549 5550 5550 5551 5552 5553 5554 5556 5558 5560 5561 5563 5564 5565 5566 5567 5569 5570 5570 5573 5576 5577 5577
5716 5713 5711 5709 5707 5705 5703 5701 5698 5695 5692 5689 5686 5682 5678 5675 5672 5666 5661 5661 5659 5650 5642 5638 5633 5630 5630 5625 5620 5618 5616 5612 5607 5601 5595 5590 5585 5579 5573 5569 5563 5557 5552 5548 5544 5541 5539 5537 5535 5533 5531 5530 5529 5529 5529 5529 5529 5529 5530 5530 5531 5532 5534 5536 5537 5539 5540 5540 5542 5543 5544 5546 5548 5550 5552 5553 5553 5555 5556 5558 5559 5560 5562 5565 5567 5568
5713 5710 5708 5706 5704 5701 5698 5696 5694 5692 5689 5685 5681 5677 5673 5669 5665 5661 5656 5652 5650 5644 5636 5632 5627 5624 5624 5619 5614 5611 5609 5605 5599 5594 5588 5582 5576 5570 5563 5557 5551 5545 5540 5536 5532 5529 5527 5525 5523 5521 5520 5518 5518 5517 5517 5517 5517 5517 5518 5518 5518 5519 5521 5523 5524 5526 5528 5529 5530 5531 5532 5534 5536 5538 5540 5541 5542 5543 5545 5546 5548 5550 5552 5554 5556 5558
5710 5707 5704 5702 5700 5698 5695 5693 5690 5688 5685 5680 5676 5671 5667 5664 5660 5655 5652 5647 5643 5638 5631 5625 5622 5619 5618 5613 5609 5606 5601 5596 5591 5585 5579 5573 5566 5559 5552 5545 5540 5534 5530 5526 5522 5519 5517 5515 5513 5511 5510 5508 5508 5507 5507 5506 5506 5506 5506 5506 5506 5507 5508 5510 5511 5513 5515 5516 5518 5519 5520 5521 5523 5525 5527 5529 5531 5532 5533 5535 5537 5539 5541 5544 5545 5546
5707 5705 5702 5699 5697 5694 5691 5688 5685 5681 5678 5675 5671 5665 5660 5658 5654 5651 5648 5643 5639 5634 5628 5622 5616 5614 5613 5607 5601 5599 5595 5588 5582 5577 5570 5563 5556 5549 5542 5535 5530 5525 5520 5517 5514 5511 5509 5506 5504 5502 5500 5499 5498 5498 5497 5496 5496 5495 5495 5495 5495 5495 5496 5498 5499 5500 5502 5504 5505 5507 5508 5509 5511 5513 5515 5517 5519 5521 5522 5524 5526 5528 5531 5533 5534 5534
5704 5702 5699 5695 5693 5689 5685 5681 5678 5674 5671 5669 5666 5662 5656 5652 5650 5646 5644 5641 5635 5629 5622 5618 5610 5604 5605 5602 5594 5590 5586 5579 5573 5568 5562 5555 5547 5541 5534 5528 5522 5517 5513 5509 5506 5503 5501 5498 5495 5493 5492 5490 5490 5489 5488 5487 5486 5486 5485 5485 5485 5484 5485 5487 5487 5488 5489 5491 5493 5495 5497 5498 5500 5501 5503 5505 5507 5509 5511 5512 5514 5516 5519 5522 5523 5524
5701 5698 5695 5691 5687 5684 5679 5675 5671 5668 5665 5663 5662 5660 5655 5649 5645 5642 5639 5636 5631 5624 5615 5611 5606 5597 5593 5593 5588 5582 5577 5572 5566 5560 5554 5547 5540 5533 5526 5520 5515 5510 5505 5501 5497 5495 5492 5489 5486 5484 5484 5482 5481 5480 5479 5478 5477 5477 5476 5476 5475 5475 5476 5477 5477 5477 5477 5479 5481 5483 5485 5487 5488 5490 5492 5493 5495 5496 5498 5501 5503 5505 5508 5510 5511 5514
5697 5695 5692 5688 5683 5679 5676 5671 5667 5663 5660 5657 5655 5653 5650 5646 5641 5637 5634 5631 5625 5618 5609 5603 5601 5595 5587 5583 5581 5577 5571 5566 5560 5553 5547 5540 5533 5526 5519 5513 5507 5502 5498 5493 5489 5486 5483 5481 5478 5476 5476 5474 5473 5472 5470 5468 5467 5468 5468 5466 5467 5467 5467 5468 5468 5468 5468 5469 5469 5471 5472 5474 5476 5478 5480 5482 5484 5485 5487 5489 5491 5493 5496 5498 5500 5503
5694 5691 5688 5684 5679 5675 5672 5668 5664 5659 5656 5652 5648 5645 5641 5637 5633 5629 5626 5624 5620 5614 5605 5597 5594 5590 5585 5579 5574 5571 5565 5559 5554 5547 5540 5533 5526 5520 5513 5507 5501 5495 5490 5485 5481 5478 5475 5473 5470 5468 5467 5466 5464 5462 5461 5459 5458 5459 5458 5457 5457 5457 5458 5459 5459 5459 5459 5459 5459 5460 5461 5462 5464 5466 5468 5470 5472 5473 5475 5477 5479 5481 5483 5486 5488 5491
5689 5687 5684 5679 5674 5670 5666 5662 5658 5654 5649 5645 5641 5637 5632 5627 5623 5620 5616 5614 5614 5611 5604 5596 5588 5584 5581 5576 5570 5566 5560 5554 5548 5541 5534 5528 5521 5515 5508 5502 5495 5489 5484 5479 5474 5471 5468 5465 5461 5459 5457 5456 5455 5454 5452 5451 5450 5449 5448 5446 5446 5447 5448 5448 5449 5449 5450 5450 5451 5451 5451 5452 5453 5454 5455 5457 5459 5461 5463 5465 5467 5469 5471 5473 5476 5479
5684 5681 5679 5675 5670 5665 5661 5656 5651 5647 5643 5638 5634 5630 5627 5623 5619 5614 5610 5607 5604 5603 5601 5595 5587 5580 5577 5572 5566 5561 5555 5549 5544 5537 5530 5523 5516 5510 5503 5496 5490 5484 5479 5473 5468 5464 5460 5457 5454 5451 5449 5447 5445 5444 5443 5442 5440 5439 5438 5436 5436 5437 5437 5438 5438 5439 5440 5441 5442 5442 5442 5443 5443 5444 5444 5445 5446 5447 5449 5452 5454 5457 5459 5462 5464 5467
5680 5676 5673 5671 5666 5660 5655 5650 5646 5642 5638 5634 5630 5627 5623 5620 5616 5610 5605 5602 5598 5595 5593 5589 5582 5575 5572 5568 5560 5555 5550 5543 5536 5530 5523 5517 5510 5504 5498 5492 5486 5479 5474 5468 5463 5458 5454 5450 5447 5444 5442 5439 5437 5435 5433 5431 5429 5428 5427 5426 5425 5425 5426 5426 5427 5429 5430 5431 5431 5432 5433 5433 5433 5434 5434 5434 5435 5435 5437 5439 5441 5443 5447 5449 5452 5455
5675 5670 5667 5665 5662 5657 5652 5647 5642 5638 5634 5630 5626 5623 5619 5615 5612 5607 5601 5596 5593 5590 5586 5582 5576 5569 5565 5562 5555 5549 5543 5536 5529 5522 5515 5509 5503 5498 5493 5487 5482 5476 5470 5465 5459 5454 5449 5444 5440 5437 5434 5432 5429 5426 5424 5421 5419 5417 5416 5415 5414 5414 5414 5414 5415 5416 5418 5419 5420 5420 5421 5423 5423 5423 5423 5424 5425 5425 5426 5427 5428 5430 5433 5436 5439 5442
5672 5667 5663 5659 5656 5653 5648 5643 5639 5634 5630 5627 5623 5618 5614 5610 5607 5602 5597 5592 5588 5585 5582 5578 5571 5562 5557 5554 5549 5543 5537 5530 5522 5516 5510 5503 5497 5492 5487 5482 5477 5472 5467 5462 5456 5451 5445 5440 5435 5431 5427 5424 5421 5418 5416 5413 5411 5408 5406 5405 5404 5404 5403 5403 5403 5403 5403 5404 5406 5407 5409 5410 5411 5411 5412 5413 5414 5415 5416 5417 5418 5419 5421 5424 5426 5429
5670 5666 5660 5656 5653 5649 5644 5640 5636 5632 5627 5623 5619 5615 5611 5607 5604 5599 5593 5588 5583 5579 5576 5573 5568 5559 5552 5548 5543 5537 5531 5524 5517 5510 5504 5498 5492 5487 5482 5478 5473 5468 5463 5458 5452 5446 5441 5435 5430 5425 5421 5417 5413 5410 5407 5405 5403 5400 5397 5394 5393 5392 5391 5391 5390 5390 5390 5390 5391 5393 5395 5396 5397 5398 5400 5401 5402 5404 5405 5407 5408 5409 5411 5412 5414 5416
5668 5664 5658 5653 5649 5646 5641 5636 5632 5629 5625 5620 5615 5611 5607 5602 5599 5594 5588 5583 5578 5573 5569 5567 5564 5557 5548 5544 5539 5532 5526 5520 5514 5507 5500 5494 5488 5482 5477 5473 5468 5463 5458 5452 5447 5441 5436 5430 5425 5419 5414 5410 5406 5402 5399 5396 5393 5390 5388 5385 5382 5380 5379 5378 5377 5377 5376 5376 5376 5378 5379 5381 5382 5384 5386 5388 5390 5392 5394 5395 5396 5397 5399 5401 5402 5404
5664 5661 5656 5651 5646 5643 5639 5634 5630 5626 5622 5618 5613 5608 5603 5597 5592 5589 5583 5578 5573 5568 5562 5557 5557 5553 5544 5538 5534 5528 5523 5518 5511 5505 5498 5491 5486 5480 5473 5468 5462 5457 5451 5446 5441 5436 5430 5425 5419 5414 5408 5403 5399 5395 5390 5386 5383 5380 5377 5375 5372 5370 5369 5367 5365 5364 5363 5363 5363 5364 5365 5365 5366 5368 5370 5373 5375 5378 5380 5382 5383 5384 5385 5387 5390 5391
5660 5657 5653 5649 5644 5641 5637 5632 5628 5623 5619 5615 5610 5605 5600 5595 5591 5586 5581 5575 5570 5564 5558 5551 5549 5548 5541 5534 5530 5525 5519 5514 5507 5501 5495 5489 5483 5477 5470 5463 5457 5451 5445 5439 5434 5429 5424 5419 5413 5408 5403 5397 5392 5387 5383 5378 5374 5370 5367 5364 5362 5360 5358 5356 5354 5353 5352 5351 5351 5351 5351 5351 5352 5353 5355 5358 5360 5362 5365 5367 5369 5370 5372 5374 5377 5377
5657 5653 5649 5645 5641 5637 5634 5630 5626 5621 5617 5612 5607 5602 5598 5593 5589 5585 5579 5574 5569 5563 5557 5549 5543 5541 5536 5530 5526 5521 5515 5509 5503 5497 5491 5485 5479 5472 5466 5459 5452 5446 5440 5434 5428 5423 5417 5412 5407 5402 5397 5392 5386 5381 5376 5371 5366 5362 5358 5354 5351 5350 5348 5346 5344 5342 5341 5340 5339 5339 5338 5339 5339 5340 5341 5343 5345 5347 5349 5351 5353 5355 5358 5361 5363 5364
5652 5649 5646 5642 5638 5633 5630 5627 5623 5618 5614 5609 5603 5598 5594 5589 5585 5581 5575 5570 5566 5561 5555 5548 5540 5536 5531 5524 5520 5515 5509 5504 5498 5492 5486 5480 5474 5468 5461 5455 5449 5442 5436 5429 5423 5417 5411 5406 5401 5395 5390 5385 5380 5375 5369 5363 5358 5353 5349 5345 5342 5340 5338 5336 5334 5332 5331 5330 5328 5327 5327 5327 5327 5327 5328 5329 5331 5333 5334 5336 5338 5340 5343 5346 5349 5351
5647 5644 5641 5638 5636 5632 5627 5623 5619 5615 5609 5604 5599 5594 5589 5585 5580 5576 5571 5565 5561 5557 5552 5544 5537 5533 5527 5518 5514 5510 5504 5500 5493 5486 5480 5473 5468 5463 5457 5450 5444 5438 5431 5425 5419 5413 5406 5400 5395 5389 5384 5378 5373 5368 5362 5357 5351 5345 5340 5336 5333 5331 5329 5326 5324 5323 5321 5320 5319 5318 5316 5316 5316 5316 5316 5317 5318 5318 5319 5321 5323 5325 5327 5329 5332 5335
5643 5639 5636 5632 5629 5626 5623 5618 5614 5611 5606 5601 5596 5590 5586 5582 5576 5572 5567 5560 5554 5551 5548 5540 5533 5531 5526 5516 5509 5505 5499 5495 5490 5483 5476 5469 5464 5459 5453 5446 5439 5433 5427 5420 5414 5407 5400 5394 5388 5382 5377 5371 5366 5361 5355 5350 5344 5338 5333 5328 5324 5321 5319 5318 5315 5313 5312 5310 5309 5308 5307 5306 5306 5306 5306 5306 5306 5306 5307 5307 5308 5310 5311 5312 5314 5317
5640 5636 5632 5628 5624 5620 5617 5613 5608 5605 5602 5598 5593 5587 5581 5576 5572 5568 5562 5556 5550 5545 5544 5538 5528 5524 5523 5516 5509 5503 5496 5491 5486 5480 5474 5467 5461 5455 5449 5442 5435 5428 5421 5414 5408 5401 5394 5388 5382 5376 5370 5364 5359 5354 5348 5343 5337 5331 5326 5321 5316 5312 5310 5308 5306 5304 5302 5301 5300 5299 5298 5297 5296 5296 5296 5296 5296 5296 5296 5295 5295 5296 5297 5298 5298 5299
5636 5633 5629 5625 5621 5617 5613 5610 5605 5600 5597 5593 5589 5584 5578 5572 5567 5563 5558 5552 5545 5539 5538 5535 5526 5518 5515 5511 5505 5499 5493 5488 5483 5476 5469 5463 5456 5450 5444 5437 5430 5424 5417 5410 5402 5396 5389 5383 5377 5371 5364 5358 5352 5347 5341 5336 5331 5325 5319 5314 5309 5304 5301 5299 5297 5295 5293 5292 5291 5290 5289 5288 5287 5287 5287 5287 5287 5287 5286 5286 5285 5285 5285 5285 5285 5285
5633 5629 5625 5622 5618 5613 5609 5606 5602 5597 5593 5589 5584 5580 5575 5569 5563 5559 5554 5548 5540 5533 5530 5528 5522 5514 5508 5503 5498 5492 5485 5481 5477 5471 5464 5458 5451 5444 5439 5433 5426 5419 5412 5405 5398 5391 5383 5377 5371 5365 5359 5353 5346 5340 5335 5329 5324 5318 5312 5306 5301 5297 5293 5290 5288 5286 5284 5283 5282 5281 5280 5279 5278 5278 5278 5278 5278 5278 5277 5277 5276 5276 5275 5275 5274 5273
5628 5625 5621 5618 5616 5611 5604 5601 5597 5593 5589 5585 5581 5575 5571 5566 5559 5553 5549 5543 5535 5528 5523 5519 5515 5511 5504 5496 5492 5487 5480 5474 5470 5465 5458 5451 5445 5439 5432 5427 5421 5413 5406 5400 5393 5385 5378 5371 5365 5359 5353 5348 5341 5334 5328 5322 5316 5310 5305 5299 5294 5289 5286 5282 5279 5277 5275 5274 5273 5272 5271 5270 5270 5269 5269 5268 5268 5268 5268 5268 5268 5267 5266 5265 5264 5263
5624 5621 5617 5613 5611 5608 5602 5596 5593 5589 5585 5581 5577 5571 5566 5562 5556 5550 5545 5540 5531 5523 5519 5514 5509 5506 5501 5493 5486 5482 5475 5468 5463 5458 5451 5444 5438 5433 5427 5421 5415 5408 5401 5394 5387 5380 5373 5366 5359 5353 5347 5341 5335 5328 5321 5315 5308 5302 5296 5291 5286 5281 5278 5274 5271 5269 5267 5265 5264 5263 5262 5262 5261 5260 5260 5260 5259 5259 5259 5259 5258 5258 5256 5255 5254 5253
5619 5616 5613 5608 5606 5604 5599 5593 5589 5585 5581 5577 5572 5567 5562 5557 5552 5546 5541 5536 5527 5519 5514 5510 5504 5499 5495 5489 5483 5477 5471 5464 5458 5453 5446 5439 5434 5428 5421 5414 5407 5401 5394 5387 5381 5374 5368 5361 5354 5347 5341 5334 5327 5321 5314 5308 5301 5295 5288 5283 5278 5273 5269 5266 5263 5261 5259 5257 5255 5254 5254 5253 5252 5252 5251 5251 5250 5250 5250 5249 5249 5248 5246 5245 5243 5243
5615 5611 5608 5604 5600 5598 5595 5589 5584 5580 5577 5573 5567 5562 5558 5552 5547 5542 5537 5532 5525 5516 5509 5505 5500 5494 5488 5483 5477 5472 5467 5460 5455 5449 5440 5432 5428 5423 5415 5407 5400 5394 5388 5382 5376 5370 5364 5357 5349 5341 5335 5328 5321 5313 5306 5299 5293 5287 5280 5274 5269 5264 5260 5257 5255 5252 5251 5249 5247 5246 5245 5244 5243 5243 5243 5242 5242 5241 5241 5240 5239 5238 5236 5235 5234 5233
5611 5607 5603 5599 5595 5593 5589 5584 5579 5575 5572 5567 5562 5558 5554 5548 5543 5538 5534 5529 5522 5513 5506 5501 5495 5489 5483 5477 5471 5466 5461 5455 5450 5445 5436 5426 5420 5416 5411 5404 5396 5390 5384 5378 5372 5366 5358 5351 5344 5336 5328 5321 5314 5306 5299 5291 5284 5278 5272 5266 5261 5256 5252 5249 5246 5244 5242 5241 5239 5237 5236 5235 5235 5234 5234 5234 5233 5233 5232 5231 5230 5228 5227 5226 5225 5224
5608 5603 5599 5595 5590 5587 5584 5579 5574 5571 5569 5563 5556 5552 5548 5543 5538 5533 5529 5527 5518 5508 5502 5497 5491 5485 5480 5473 5467 5460 5455 5449 5444 5439 5431 5422 5415 5409 5403 5398 5391 5384 5378 5372 5366 5359 5352 5345 5338 5330 5322 5314 5307 5299 5291 5284 5277 5270 5264 5258 5253 5249 5245 5241 5238 5236 5234 5232 5231 5229 5227 5226 5226 5226 5225 5225 5225 5224 5224 5222 5221 5220 5218 5217 5216 5215
5603 5599 5594 5590 5585 5582 5578 5574 5568 5565 5565 5560 5551 5546 5543 5538 5533 5526 5524 5524 5517 5504 5497 5493 5487 5481 5475 5468 5462 5455 5448 5443 5439 5432 5424 5416 5409 5403 5396 5390 5384 5378 5371 5363 5357 5351 5345 5338 5330 5323 5316 5308 5300 5292 5285 5278 5271 5264 5257 5251 5246 5242 5238 5234 5231 5228 5226 5224 5222 5220 5219 5218 5217 5217 5217 5217 5216 5216 5215 5214 5213 5212 5210 5209 5208 5207
5599 5594 5590 5584 5581 5577 5571 5567 5562 5557 5557 5555 5546 5541 5537 5532 5527 5519 5515 5517 5514 5501 5493 5487 5481 5475 5468 5461 5455 5449 5442 5437 5433 5426 5417 5410 5404 5397 5389 5383 5376 5370 5364 5356 5349 5343 5337 5330 5323 5315 5308 5301 5293 5286 5279 5272 5265 5258 5251 5245 5240 5235 5231 5227 5223 5220 5218 5216 5214 5212 5211 5210 5209 5209 5209 5208 5208 5207 5207 5206 5205 5203 5202 5201 5200 5199
5595 5591 5585 5579 5575 5571 5565 5559 5555 5550 5549 5546 5538 5534 5530 5525 5520 5513 5506 5507 5506 5496 5488 5482 5474 5468 5462 5454 5448 5442 5435 5430 5427 5420 5410 5402 5398 5391 5384 5377 5370 5363 5357 5350 5343 5336 5329 5323 5317 5309 5301 5294 5287 5280 5273 5266 5260 5252 5245 5239 5234 5229 5225 5220 5216 5213 5210 5208 5206 5204 5203 5202 5201 5201 5201 5200 5200 5199 5199 5198 5197 5196 5194 5193 5193 5191
5591 5587 5582 5575 5571 5566 5560 5554 5549 5544 5542 5538 5531 5526 5523 5517 5512 5506 5498 5497 5497 5489 5481 5475 5468 5461 5455 5448 5442 5435 5427 5421 5420 5416 5405 5395 5389 5383 5376 5371 5364 5357 5350 5343 5335 5328 5321 5315 5309 5302 5295 5288 5281 5275 5268 5261 5254 5247 5239 5233 5228 5223 5219 5214 5210 5206 5203 5200 5198 5196 5195 5194 5193 5193 5193 5192 5192 5191 5191 5191 5189 5188 5187 5185 5185 5184
5588 5583 5577 5572 5567 5562 5554 5549 5544 5540 5537 5531 5523 5519 5515 5509 5504 5498 5489 5486 5486 5481 5474 5468 5461 5455 5449 5442 5436 5430 5422 5413 5409 5407 5401 5392 5384 5376 5367 5361 5356 5350 5344 5337 5330 5322 5315 5308 5301 5295 5289 5282 5275 5269 5262 5256 5249 5241 5234 5227 5222 5217 5212 5208 5204 5199 5196 5193 5190 5188 5187 5186 5186 5185 5185 5185 5184 5184 5183 5183 5182 5181 5180 5178 5177 5177
5584 5579 5573 5567 5563 5557 5549 5542 5539 5537 5535 5527 5517 5512 5508 5502 5497 5491 5483 5478 5475 5471 5466 5461 5455 5450 5444 5437 5430 5424 5418 5409 5401 5397 5393 5385 5378 5371 5363 5355 5348 5342 5336 5330 5324 5317 5310 5303 5295 5288 5282 5276 5269 5262 5255 5249 5242 5235 5228 5222 5216 5211 5207 5202 5197 5193 5189 5186 5183 5181 5180 5179 5178 5178 5177 5177 5177 5177 5176 5175 5175 5174 5173 5172 5170 5169
5578 5573 5568 5563 5557 5551 5544 5537 5531 5529 5529 5522 5512 5506 5502 5496 5490 5485 5479 5474 5469 5463 5458 5453 5448 5442 5437 5431 5425 5418 5412 5405 5397 5390 5384 5377 5370 5364 5357 5350 5343 5336 5330 5323 5317 5310 5304 5298 5291 5283 5276 5269 5262 5256 5249 5243 5236 5230 5223 5217 5211 5206 5202 5197 5191 5187 5182 5178 5176 5174 5172 5172 5171 5170 5170 5169 5170 5170 5169 5168 5168 5167 5166 5165 5164 5163
5574 5568 5562 5558 5552 5544 5538 5533 5527 5522 5520 5516 5508 5501 5494 5489 5484 5477 5471 5468 5463 5457 5450 5445 5440 5434 5427 5422 5417 5410 5404 5398 5391 5383 5376 5369 5362 5356 5349 5343 5336 5330 5324 5317 5311 5304 5298 5291 5285 5278 5270 5263 5256 5249 5243 5237 5231 5225 5218 5211 5206 5201 5197 5192 5187 5182 5177 5172 5169 5167 5165 5165 5164 5163 5163 5162 5162 5163 5162 5161 5161 5160 5160 5159 5158 5156
5570 5564 5557 5552 5547 5540 5532 5529 5525 5518 5513 5509 5504 5497 5490 5483 5478 5472 5466 5462 5457 5451 5444 5438 5433 5427 5420 5414 5410 5404 5397 5391 5384 5377 5370 5363 5356 5349 5342 5336 5329 5323 5317 5310 5304 5297 5291 5284 5278 5272 5265 5257 5250 5243 5236 5230 5225 5220 5213 5206 5200 5196 5191 5187 5182 5178 5173 5168 5164 5161 5159 5158 5157 5156 5156 5155 5155 5155 5155 5155 5154 5154 5153 5152 5151 5150
5566 5560 5553 5547 5542 5536 5530 5527 5523 5516 5508 5502 5498 5494 5487 5479 5472 5466 5460 5456 5451 5445 5437 5431 5426 5421 5414 5407 5403 5397 5391 5384 5378 5371 5363 5357 5350 5343 5335 5329 5322 5315 5309 5303 5296 5290 5283 5277 5271 5265 5259 5252 5244 5237 5230 5223 5218 5213 5207 5201 5195 5190 5185 5182 5177 5173 5168 5164 5159 5156 5153 5151 5150 5149 5149 5149 5148 5148 5148 5148 5148 5147 5146 5146 5145 5144
5560 5554 5547 5541 5536 5530 5526 5525 5521 5512 5504 5497 5492 5488 5483 5475 5468 5460 5454 5449 5444 5438 5432 5426 5420 5415 5408 5401 5396 5391 5385 5378 5371 5365 5357 5350 5343 5336 5329 5322 5315 5307 5301 5295 5289 5283 5276 5270 5264 5258 5252 5245 5238 5231 5225 5217 5211 5206 5201 5195 5190 5184 5180 5176 5172 5168 5164 5160 5155 5151 5148 5145 5144 5142 5142 5142 5142 5142 5142 5142 5141 5141 5140 5139 5139 5138
5555 5547 5540 5535 5530 5522 5519 5521 5517 5507 5500 5493 5486 5481 5476 5469 5463 5457 5449 5443 5438 5433 5427 5421 5415 5409 5403 5396 5389 5384 5378 5371 5364 5358 5351 5343 5336 5329 5321 5314 5308 5300 5293 5287 5282 5276 5269 5263 5257 5251 5245 5239 5232 5225 5219 5212 5205 5200 5195 5189 5184 5179 5174 5170 5166 5163 5159 5155 5151 5147 5144 5141 5138 5137 5136 5135 5135 5135 5135 5135 5135 5135 5134 5133 5133 5132
5546 5539 5533 5529 5524 5517 5513 5514 5510 5502 5496 5492 5483 5476 5470 5463 5458 5453 5445 5439 5433 5427 5421 5415 5409 5403 5396 5389 5382 5376 5371 5365 5357 5350 5344 5336 5329 5321 5314 5307 5300 5293 5287 5280 5274 5268 5262 5256 5250 5244 5238 5232 5225 5218 5212 5206 5200 5194 5189 5183 5178 5173 5169 5165 5161 5157 5154 5150 5147 5143 5139 5136 5133 5131 5130 5129 5128 5128 5128 5128 5128 5128 5128 5127 5127 5127
5538 5533 5527 5521 5517 5512 5508 5506 5500 5493 5491 5490 5482 5472 5466 5459 5453 5448 5442 5435 5428 5421 5415 5409 5403 5396 5389 5383 5376 5369 5363 5358 5350 5342 5336 5329 5322 5314 5307 5300 5293 5286 5280 5273 5267 5261 5254 5248 5242 5236 5231 5224 5218 5212 5205 5200 5194 5188 5183 5177 5172 5167 5163 5159 5155 5152 5148 5145 5142 5139 5135 5132 5129 5126 5125 5123 5122 5122 5121 5121 5121 5122 5121 5121 5121 5121
5532 5527 5522 5514 5509 5506 5503 5500 5492 5483 5482 5483 5477 5468 5461 5454 5447 5442 5436 5429 5422 5415 5409 5402 5397 5390 5383 5376 5369 5362 5356 5350 5342 5335 5328 5321 5314 5307 5299 5292 5286 5279 5272 5266 5260 5254 5247 5240 5234 5229 5223 5217 5211 5204 5199 5193 5188 5183 5177 5172 5166 5162 5157 5153 5150 5146 5143 5140 5137 5134 5130 5127 5124 5121 5119 5118 5117 5116 5115 5114 5114 5115 5115 5115 5114 5114
5528 5522 5516 5508 5503 5499 5497 5493 5486 5477 5474 5473 5468 5461 5455 5448 5441 5435 5429 5423 5416 5409 5402 5395 5389 5383 5376 5370 5362 5354 5348 5342 5335 5327 5321 5313 5306 5298 5291 5284 5278 5271 5265 5259 5253 5247 5240 5233 5227 5221 5216 5211 5204 5198 5192 5187 5182 5177 5172 5166 5161 5156 5152 5148 5144 5141 5137 5134 5131 5128 5125 5122 5119 5117 5114 5112 5111 5110 5110 5108 5107 5108 5109 5109 5109 5108